DW4221 Weather Reports


time (UTC)temp
F
wind
direction
speed
knots
gust
knots
rain 1hr
in
rain 24hr
in
rain mn
in
humidity
%
barometer
mb
20260508021548 38 0 0.0 0.0 0.00 0.00 0.00 53 1009.1
20260508020105 40 0 0.0 0.0 0.00 0.00 0.00 51 1009.1
20260508014556 41 0 0.0 0.0 0.00 0.00 0.00 47 1008.7
20260508013106 42 0 0.0 1.7 0.00 0.00 0.00 45 1008.7
20260508011603 44 0 0.0 1.7 0.00 0.00 0.00 43 1008.6
20260508010105 44 19 0.0 6.1 0.00 0.00 0.00 41 1008.5
20260508004552 45 352 3.5 9.6 0.00 0.00 0.00 40 1008.3
20260508003053 46 12 1.7 9.6 0.00 0.00 0.00 39 1008.4
20260508001559 47 16 1.7 7.8 0.00 0.00 0.00 39 1008.3
20260508000057 48 11 1.7 9.6 0.00 0.00 0.00 37 1008.4
20260507234557 47 305 1.7 9.6 0.00 0.00 0.00 39 1008.3
20260507233055 48 207 1.7 8.7 0.00 0.00 0.00 38 1008.2
20260507231557 49 13 7.0 20.0 0.00 0.00 0.00 36 1008.1
20260507230057 49 286 1.7 12.2 0.00 0.00 0.00 38 1008.5
20260507224555 48 263 1.7 8.7 0.00 0.00 0.00 40 1008.4
20260507223058 47 55 1.7 7.8 0.00 0.00 0.00 39 1008.3
20260507221552 48 0 4.3 9.6 0.00 0.00 0.00 37 1008.4
20260507220055 48 10 1.7 8.7 0.00 0.00 0.00 41 1008.4
20260507214556 48 271 3.5 16.5 0.00 0.00 0.00 40 1008.5
20260507213056 48 259 3.5 11.3 0.00 0.00 0.00 38 1008.6
20260507211554 48 360 2.6 9.6 0.00 0.00 0.00 40 1008.6
20260507210050 49 252 3.5 14.8 0.00 0.00 0.00 40 1008.8
20260507204550 49 297 3.5 13.9 0.00 0.00 0.00 39 1008.7
20260507203053 48 267 3.5 12.2 0.00 0.00 0.00 40 1008.8
20260507201552 47 317 2.6 8.7 0.00 0.00 0.00 46 1009.0
20260507200055 47 254 2.6 7.8 0.00 0.00 0.00 43 1008.9
20260507194556 46 333 1.7 11.3 0.00 0.00 0.00 45 1008.9
20260507193052 46 311 2.6 10.4 0.00 0.00 0.00 45 1008.9
20260507191602 48 360 4.3 9.6 0.00 0.00 0.00 47 1008.8
20260507190055 47 0 1.7 8.7 0.00 0.00 0.00 49 1009.0
20260507184556 45 265 2.6 8.7 0.00 0.00 0.00 52 1009.3
20260507183101 44 11 1.7 7.0 0.00 0.00 0.00 56 1009.4
20260507181555 43 279 2.6 8.7 0.00 0.00 0.00 55 1009.4
20260507180057 44 296 0.9 6.1 0.00 0.00 0.00 54 1009.5
20260507174554 45 246 1.7 8.7 0.00 0.00 0.00 55 1009.5
20260507173103 44 292 2.6 7.8 0.00 0.00 0.00 55 1009.7
20260507171555 44 284 1.7 10.4 0.00 0.00 0.00 55 1009.8
20260507170055 43 292 1.7 7.8 0.00 0.00 0.00 55 1009.7
20260507164554 42 257 1.7 9.6 0.00 0.00 0.00 59 1010.0
20260507163058 43 213 2.6 8.7 0.00 0.00 0.00 54 1009.8
20260507161559 43 241 3.5 10.4 0.00 0.00 0.00 53 1010.1
20260507160057 43 297 2.6 13.9 0.00 0.00 0.00 53 1010.1
20260507154559 44 349 1.7 8.7 0.00 0.00 0.00 56 1010.2
20260507153102 44 279 2.6 9.6 0.00 0.00 0.00 56 1010.2
20260507151552 43 265 2.6 8.7 0.00 0.00 0.00 59 1010.2
20260507150105 43 240 2.6 7.8 0.00 0.00 0.00 59 1010.4
20260507144556 43 257 3.5 12.2 0.00 0.00 0.00 59 1010.5
20260507143105 42 269 1.7 6.1 0.00 0.00 0.00 62 1010.8
20260507141557 41 82 1.7 9.6 0.00 0.00 0.00 64 1010.6
20260507140056 39 14 2.6 7.8 0.00 0.00 0.00 67 1010.9
20260507134601 38 313 3.5 9.6 0.00 0.00 0.00 69 1010.9
20260507133100 38 263 2.6 7.8 0.00 0.00 0.00 72 1010.8
20260507131557 35 276 0.9 3.5 0.00 0.00 0.00 78 1010.8
20260507124556 31 234 0.9 3.5 0.00 0.00 0.00 85 1010.9
20260507123053 29 0 0.0 0.0 0.00 0.00 0.00 88 1011.0
20260507121601 28 0 0.0 0.0 0.00 0.00 0.00 91 1011.0
20260507120056 26 0 0.0 0.0 0.00 0.00 0.00 92 1011.0
20260507114559 24 0 0.0 0.0 0.00 0.00 0.00 93 1010.9
20260507113052 22 0 0.0 0.0 0.00 0.00 0.00 92 1010.7
20260507111551 22 0 0.0 0.0 0.00 0.00 0.00 92 1010.9
20260507110059 22 0 0.0 0.0 0.00 0.00 0.00 91 1010.7
20260507104555 22 0 0.0 0.0 0.00 0.00 0.00 90 1010.8
20260507103115 22 0 0.0 0.0 0.00 0.00 0.00 91 1011.0
20260507101556 22 0 0.0 0.0 0.00 0.00 0.00 91 1010.7
20260507100110 23 0 0.0 0.0 0.00 0.00 0.00 90 1010.9
20260507094601 23 0 0.0 0.0 0.00 0.00 0.00 89 1011.0
20260507093051 23 0 0.0 0.0 0.00 0.00 0.00 89 1011.1
20260507091556 24 0 0.0 0.0 0.00 0.00 0.00 89 1011.0
20260507090058 24 0 0.0 0.0 0.00 0.00 0.00 88 1011.1
20260507084605 25 0 0.0 0.0 0.00 0.00 0.00 88 1011.0
20260507083056 25 0 0.0 0.0 0.00 0.00 0.00 88 1011.1
20260507081555 25 0 0.0 0.0 0.00 0.00 0.00 87 1011.1
20260507080054 26 0 0.0 0.0 0.00 0.00 0.00 86 1011.2
20260507074602 26 0 0.0 0.0 0.00 0.00 0.00 86 1011.2
20260507073052 27 0 0.0 0.0 0.00 0.00 0.00 85 1011.4
20260507071550 27 0 0.0 0.0 0.00 0.00 0.00 83 1011.5
20260507070106 28 0 0.0 0.0 0.00 0.00 0.00 82 1011.7
20260507064556 29 0 0.0 0.0 0.00 0.00 0.00 81 1011.7
20260507063052 31 0 0.0 0.0 0.00 0.00 0.00 78 1011.9
20260507061552 33 0 0.0 0.0 0.00 0.00 0.00 76 1011.9
20260507060058 34 0 0.0 0.0 0.00 0.00 0.00 76 1012.0
20260507054609 34 0 0.0 1.7 0.00 0.00 0.00 75 1012.1
20260507053059 34 0 0.0 2.6 0.00 0.00 0.00 75 1012.3
20260507051555 34 0 0.0 1.7 0.00 0.00 0.00 76 1012.3
20260507050056 34 0 0.0 1.7 0.00 0.00 0.00 75 1012.4
20260507044557 35 0 0.0 1.7 0.00 0.00 0.00 76 1012.5
20260507043050 35 0 0.0 1.7 0.00 0.00 0.00 75 1012.5
20260507041600 35 0 0.0 0.0 0.00 0.00 0.00 74 1012.8
20260507040054 35 0 0.0 0.0 0.00 0.00 0.00 75 1012.9
20260507034600 35 0 0.0 1.7 0.00 0.00 0.00 73 1012.8
20260507033056 35 0 0.0 4.3 0.00 0.00 0.00 73 1012.9
20260507031555 35 0 0.9 2.6 0.00 0.00 0.00 73 1013.1
20260507030052 35 0 0.0 2.6 0.00 0.00 0.00 73 1013.1
20260507024557 35 0 0.0 3.5 0.00 0.00 0.00 72 1013.1
20260507023051 35 0 0.0 5.2 0.00 0.00 0.00 71 1013.1